Madison, MN

9:30 PM CST on December 04, 2016 (GMT -0600)
Madison-Lac Qui Parle County

Weather History for KDXX - December, 2012

Change the Weather History Date:

Friday, December 7, 2012

  Actual Average (KAQP) Record (KAQP)
Temperature  
Mean Temperature 26 °F -  
Max Temperature 30 °F 29 °F 42 °F (1998)
Min Temperature 23 °F 13 °F -16 °F (2013)
Degree Days  
Heating Degree Days 38    
Moisture  
Dew Point 25 °F    
Average Humidity 90    
Maximum Humidity 100    
Minimum Humidity 74    
Precipitation  
Precipitation 0.11 in - - ()
Sea Level Pressure  
Sea Level Pressure 30.02 in    
Wind  
Wind Speed 2 mph (ENE)    
Max Wind Speed 8 mph    
Max Gust Speed -    
Visibility 5 miles    
Events Snow    
Averages and records for this station are not official NWS values.
T = Trace of Precipitation, MM = Missing Value Source: NWS Daily Summary

Daily Weather History Graph

Daily Weather History Graph

Search for Another Location

Airport or City:

Trip Planner

Search our weather history database for the weather conditions in past years. The results will help you decide how hot, cold, wet, or windy it might be!

Date:

Astronomy

Dec. 07, 2012 Rise Set
Actual Time 7:49 AM CST 4:43 PM CST
Civil Twilight 7:16 AM CST 5:16 PM CST
Nautical Twilight 6:39 AM CST 5:53 PM CST
Astronomical Twilight 6:03 AM CST 6:29 PM CST
Moon 12:55 AM CST (12/7) 12:54 PM CST (12/7)
Length of Visible Light 10h 00m
Length of Day
8h 53m
Last Quarter, 38% of the Moon is Illuminated
Dec 7
Last Quarter
Dec 13
New
Dec 19
First Quarter
Dec 28
Full
Jan 4
Last Quarter

Hourly Weather History & Observations

Time (CST) Temp. Windchill Dew Point Humidity Pressure Visibility Wind Dir Wind Speed Gust Speed Precip Events Conditions
12:13 AM 24.8 °F 20.5 °F 19.4 °F 80% 30.02 in 10.0 mi WNW 3.5 mph - N/A   Clear
12:34 AM 24.8 °F - 19.4 °F 80% 30.02 in 10.0 mi Calm Calm - N/A   Clear
12:54 AM 24.8 °F 20.5 °F 19.4 °F 80% 30.02 in 10.0 mi West 3.5 mph - N/A   Clear
1:13 AM 24.8 °F - 19.4 °F 80% 30.02 in 10.0 mi Calm Calm - N/A   Clear
1:34 AM 23.0 °F - 19.4 °F 86% 30.02 in 10.0 mi Calm Calm - N/A   Clear
1:54 AM 24.8 °F - 19.4 °F 80% 30.02 in 10.0 mi Calm Calm - N/A   Clear
2:13 AM 24.8 °F - 19.4 °F 80% 30.02 in 10.0 mi Calm Calm - N/A   Clear
2:34 AM 24.8 °F 20.5 °F 19.4 °F 80% 30.03 in 10.0 mi SSW 3.5 mph - N/A   Clear
2:54 AM 24.8 °F 20.5 °F 21.2 °F 86% 30.02 in 10.0 mi South 3.5 mph - N/A   Clear
3:13 AM 24.8 °F - 21.2 °F 86% 30.02 in 10.0 mi Calm Calm - N/A   Clear
3:34 AM 24.8 °F 20.5 °F 21.2 °F 86% 30.02 in 10.0 mi SSW 3.5 mph - N/A   Clear
3:53 AM 24.8 °F - 21.2 °F 86% 30.02 in 10.0 mi Calm Calm - N/A   Clear
4:14 AM 26.6 °F - 21.2 °F 80% 30.01 in 10.0 mi Calm Calm - N/A   Clear
4:34 AM 24.8 °F - 21.2 °F 86% 30.01 in 10.0 mi Calm Calm - N/A   Clear
4:54 AM 24.8 °F - 21.2 °F 86% 30.01 in 10.0 mi Calm Calm - N/A   Clear
5:14 AM 24.8 °F - 21.2 °F 86% 30.01 in 10.0 mi Calm Calm - N/A   Clear
5:33 AM 23.0 °F - 19.4 °F 86% 30.01 in 10.0 mi Calm Calm - N/A   Clear
5:54 AM 24.8 °F - 21.2 °F 86% 30.01 in 10.0 mi Calm Calm - N/A   Clear
6:14 AM 24.8 °F - 21.2 °F 86% 30.01 in 10.0 mi Calm Calm - N/A   Scattered Clouds
6:33 AM 26.6 °F - 21.2 °F 80% 30.01 in 10.0 mi Calm Calm - N/A   Mostly Cloudy
6:54 AM 24.8 °F - 21.2 °F 86% 30.02 in 10.0 mi Calm Calm - N/A   Mostly Cloudy
7:14 AM 24.8 °F - 21.2 °F 86% 30.03 in 10.0 mi Calm Calm - N/A   Overcast
7:33 AM 26.6 °F - 21.2 °F 80% 30.03 in 10.0 mi Calm Calm - N/A   Mostly Cloudy
7:54 AM 26.6 °F - 21.2 °F 80% 30.03 in 10.0 mi Calm Calm - N/A   Scattered Clouds
8:14 AM 28.4 °F 24.6 °F 21.2 °F 74% 30.02 in 10.0 mi SSW 3.5 mph - N/A   Clear
8:33 AM 28.4 °F - 21.2 °F 74% 30.02 in 10.0 mi Calm Calm - N/A   Clear
8:54 AM 28.4 °F - 23.0 °F 80% 30.03 in 10.0 mi Calm Calm - N/A   Clear
9:13 AM 28.4 °F - 24.8 °F 86% 30.04 in 10.0 mi Calm Calm - N/A   Clear
9:34 AM 28.4 °F - 24.8 °F 86% 30.04 in 4.0 mi Calm Calm - N/A Snow Light Snow
9:54 AM 28.4 °F - 26.6 °F 93% 30.05 in 1.0 mi Calm Calm - N/A Snow Light Snow
10:13 AM 28.4 °F - 26.6 °F 93% 30.05 in 1.0 mi Calm Calm - N/A Snow Light Snow
10:34 AM 30.2 °F - 26.6 °F 86% 30.06 in 1.2 mi Calm Calm - 0.01 in Snow Light Snow
10:54 AM 30.2 °F - 28.4 °F 93% 30.06 in 1.2 mi Calm Calm - 0.01 in Snow Light Snow
11:13 AM 30.2 °F - 28.4 °F 93% 30.05 in 1.5 mi Calm Calm - N/A Snow Light Snow
11:34 AM 30.2 °F 26.7 °F 28.4 °F 93% 30.04 in 1.5 mi NE 3.5 mph - N/A Snow Light Snow
11:54 AM 30.2 °F 26.7 °F 28.4 °F 93% 30.04 in 1.2 mi NE 3.5 mph - 0.01 in Snow Light Snow
12:13 PM 30.2 °F 24.3 °F 28.4 °F 93% 30.02 in 0.8 mi NE 5.8 mph - N/A Snow Light Snow
12:34 PM 30.2 °F 24.3 °F 28.4 °F 93% 30.01 in 1.8 mi NE 5.8 mph - 0.01 in Snow Light Snow
12:54 PM 30.2 °F 23.4 °F 28.4 °F 93% 30.00 in 2.0 mi NE 6.9 mph - 0.01 in Snow Light Snow
1:13 PM 30.2 °F 22.6 °F 28.4 °F 93% 29.99 in 1.8 mi NE 8.1 mph - N/A Snow Light Snow
1:34 PM 30.2 °F 24.3 °F 28.4 °F 93% 29.99 in 1.5 mi NE 5.8 mph - N/A Snow Light Snow
1:54 PM 30.2 °F 24.3 °F 28.4 °F 93% 29.99 in 1.5 mi NE 5.8 mph - 0.01 in Snow Light Snow
2:13 PM 30.2 °F 24.3 °F 28.4 °F 93% 29.99 in 1.0 mi ENE 5.8 mph - N/A Snow Light Snow
2:34 PM 30.2 °F 23.4 °F 28.4 °F 93% 29.99 in 0.8 mi ENE 6.9 mph - N/A Snow Light Snow
2:54 PM 30.2 °F 23.4 °F 28.4 °F 93% 29.99 in 1.2 mi ENE 6.9 mph - 0.01 in Snow Light Snow
3:13 PM - - 28.4 °F N/A% 29.99 in 1.5 mi ENE 6.9 mph - N/A   Unknown
3:34 PM 30.2 °F 25.4 °F 28.4 °F 93% 30.00 in 1.2 mi ENE 4.6 mph - N/A Snow Light Snow
3:54 PM 30.2 °F 24.3 °F 26.6 °F 86% 30.00 in 1.0 mi ENE 5.8 mph - N/A Snow Light Snow
4:13 PM 30.2 °F 25.4 °F 28.4 °F 93% 30.01 in 0.8 mi ENE 4.6 mph - N/A Snow Light Snow
4:34 PM - - 28.4 °F N/A% 30.01 in 0.8 mi Calm Calm - N/A   Unknown
4:54 PM 28.4 °F 24.6 °F 28.4 °F 100% 30.01 in 1.5 mi ENE 3.5 mph - 0.01 in Snow Light Snow
5:14 PM 28.4 °F - 28.4 °F 100% 30.01 in 1.8 mi Calm Calm - 0.01 in Snow Light Snow
5:34 PM 28.4 °F 24.6 °F 26.6 °F 93% 30.02 in 1.2 mi ENE 3.5 mph - 0.02 in Snow Light Snow
5:54 PM 28.4 °F - 26.6 °F 93% 30.02 in 1.2 mi Calm Calm - 0.02 in Snow Light Snow
6:14 PM 28.4 °F - 26.6 °F 93% 30.02 in 1.5 mi Calm Calm - 0.01 in Snow Light Snow
6:34 PM 28.4 °F - 26.6 °F 93% 30.02 in 1.8 mi Calm Calm - 0.02 in Snow Light Snow
7:14 PM 28.4 °F - 26.6 °F 93% 30.03 in 2.0 mi Calm Calm - N/A Snow Light Snow
7:34 PM 28.4 °F - 26.6 °F 93% 30.03 in 2.0 mi Calm Calm - N/A Snow Light Snow
8:34 PM 26.6 °F - 26.6 °F 100% 30.04 in 0.5 mi Calm Calm - 0.01 in Snow Light Snow
8:54 PM 26.6 °F - 26.6 °F 100% 30.04 in 1.2 mi Calm Calm - 0.01 in Snow Light Snow
9:13 PM 26.6 °F - 26.6 °F 100% 30.04 in 2.0 mi Calm Calm - N/A Snow Light Snow
9:34 PM 26.6 °F - 26.6 °F 100% 30.04 in 2.5 mi Calm Calm - N/A Snow Light Snow
9:54 PM 26.6 °F - 26.6 °F 100% 30.04 in 2.5 mi Calm Calm - N/A Snow Light Snow
10:13 PM 26.6 °F - 26.6 °F 100% 30.04 in 3.0 mi Calm Calm - N/A Snow Light Snow
10:34 PM 26.6 °F - 26.6 °F 100% 30.03 in 2.0 mi Calm Calm - N/A Snow Light Snow
10:54 PM 26.6 °F - 26.6 °F 100% 30.03 in 2.5 mi Calm Calm - N/A Snow Light Snow
11:13 PM 26.6 °F - 26.6 °F 100% 30.03 in 2.5 mi Calm Calm - N/A Snow Light Snow
11:34 PM 26.6 °F - 26.6 °F 100% 30.03 in 3.0 mi Calm Calm - N/A   Scattered Clouds
11:54 PM 26.6 °F - 24.8 °F 93% 30.03 in 2.0 mi Calm Calm - N/A   Mostly Cloudy